Tracking 35331 objects as of 16-Sep-2026
HD Live streaming from Space Station
objects crossing your sky now

OBJECT F

Track OBJECT F now!
10-day predictions


NORAD ID: 67751
Int'l Code: 2026-027F
Launch date: February 12, 2026
Source: People's Republic of China (PRC)
Launch site: South China Sea Launch Area (SCSLA)
Your satellite tracking list
Your tracking list is empty




NASA's NSSDC Master Catalog

Two Line Element Set (TLE):
1 67751U 26027F   26258.94765500  .00004252  00000-0  24395-3 0  9991
2 67751  97.5185  25.0230 0010409 155.0001 205.1737 15.13047240 32637
Source of the keplerian elements: AFSPC